Satellite: RS-38 Catalog number: 35869 Epoch time: 11279.81654644 Element set: 766 Inclination: 098.6904 deg RA of node: 333.4540 deg Eccentricity: 0.0005397 Arg of perigee: 069.1908 deg Mean anomaly: 290.9843 deg Mean motion: 14.22024977 rev/day Decay rate: 1.77e-06 rev/day^2 Epoch rev: 10646 Checksum: 349
Satellite: ARISSAT1 Catalog number: 37772 Epoch time: 11279.57881454 Element set: 194 Inclination: 051.6389 deg RA of node: 319.0469 deg Eccentricity: 0.0009281 Arg of perigee: 307.3584 deg Mean anomaly: 212.4737 deg Mean motion: 15.66323243 rev/day Decay rate: 7.9209e-04 rev/day^2 Epoch rev: 989 Checksum: 338
/EX
participants (1)
-
Ray Hoad